Flag for Belarus Weather past 2 weeks in Gomel, Belarus

Now
34 °F

Overcast.


Feels Like: 26 °F
Forecast: 27 / 36 °F
Wind: 10 mph from Northeast

Location: Gomel'

Current Time: Oct 22, 2014 at 7:31:11 PM

Latest Report: Oct 22, 2014 at 7:00 PM


Visibility: N/A

Pressure: 29.95 "Hg

Humidity: 81%

Dew point: 28 °F

Location of GomelLocation

Historic Weather in Gomel — Graph

°F

Gomel temperature yesterday

Maximum temperature yesterday: 54 °F (at 12:00 AM)
Minimum temperature yesterday: 50 °F (at 3:00 AM)
Average temperature yesterday: 52 °F

Past Weeks' High & Low Weather Summary

 TemperatureHumidityPressure
High72 °F (Oct 14, 3:00 PM)100% (Oct 14, 1:00 AM)30.57 "Hg (Oct 14, 1:00 AM)
Low19 °F (Oct 19, 8:00 AM)27% (Oct 14, 2:00 PM)29.53 "Hg (Oct 21, 5:00 AM)
Average51 °F69%29.98 "Hg
* Reported Oct 7 6:00 PM — Oct 22 6:30 PM, Gomel, Weather by CustomWeather, © 2014

Note: Actual official high and low records may vary slightly from our data, if they occured in-between our weather recording intervals... More about our weather records

Advertising

Gomel weather history for previous 24 hours

 ConditionsComfort  
Time TempWeatherWind HumidityBarometerVisibility
6:30 PM
Oct 22
36 °FSprinkles. Overcast.13 mph75%29.95 "HgN/A
6:00 PM36 °FSprinkles. Overcast.10 mph75%29.95 "HgN/A
5:30 PM37 °FSleet. Overcast.13 mph70%29.95 "HgN/A
5:00 PM37 °FSprinkles. Overcast.13 mph70%29.92 "HgN/A
4:30 PM37 °FOvercast.10 mph75%29.92 "HgN/A
4:00 PM37 °FOvercast.10 mph75%29.92 "HgN/A
3:30 PM37 °FSprinkles. Overcast.10 mph87%29.92 "HgN/A
3:00 PM37 °FSprinkles. Overcast.10 mph87%29.89 "HgN/A
2:30 PM37 °FSprinkles. Overcast.13 mph81%29.89 "HgN/A
2:00 PM37 °FSprinkles. Overcast.13 mph81%29.89 "HgN/A
1:30 PM37 °FOvercast.10 mph81%29.89 "HgN/A
1:00 PM37 °FOvercast.10 mph81%29.86 "Hg6 mi
12:30 PM37 °FOvercast.10 mph81%29.86 "Hg6 mi
12:00 PM37 °FOvercast.10 mph81%29.86 "Hg6 mi
11:30 AM37 °FOvercast.10 mph87%29.86 "Hg6 mi
11:00 AM37 °FDrizzle. Low clouds.13 mph87%29.86 "Hg5 mi
10:30 AM39 °FDrizzle. Low clouds.13 mph81%29.86 "Hg6 mi
10:00 AM39 °FOvercast.13 mph81%29.83 "HgN/A
9:30 AM39 °FOvercast.10 mph81%29.83 "HgN/A
9:00 AM39 °FSprinkles. Overcast.10 mph81%29.83 "HgN/A
8:30 AM39 °FPassing clouds.15 mph87%29.80 "HgN/A
8:00 AM39 °FPassing clouds.15 mph87%29.77 "HgN/A
7:30 AM39 °FPassing clouds.13 mph87%29.77 "HgN/A
7:00 AM39 °FMostly cloudy.13 mph87%29.77 "HgN/A
6:30 AM39 °FOvercast.13 mph93%29.77 "HgN/A
6:00 AM39 °FPassing clouds.10 mph93%29.74 "HgN/A
5:00 AM41 °FPassing clouds.13 mph87%29.74 "HgN/A
4:00 AM43 °FMostly cloudy.10 mph87%29.71 "HgN/A
3:00 AM43 °FMostly cloudy.13 mph87%29.71 "HgN/A
2:00 AM45 °FOvercast.13 mph87%29.71 "HgN/A
1:00 AM45 °FLow clouds.13 mph93%29.68 "HgN/A
12:00 AM46 °FPassing clouds.15 mph93%29.68 "HgN/A
11:00 PM
Oct 21
50 °FPassing clouds.10 mph94%29.65 "HgN/A
10:00 PM50 °FPassing clouds.8 mph94%29.65 "HgN/A
9:00 PM50 °FPartly cloudy.8 mph94%29.62 "HgN/A
8:00 PM50 °FSprinkles. Passing clouds.6 mph94%29.62 "HgN/A
7:30 PM50 °FSprinkles. Passing clouds.6 mph94%29.62 "HgN/A
7:00 PM50 °FSprinkles. Passing clouds.10 mph94%29.62 "Hg3 mi
Weather by CustomWeather, © 2014

See weather overviewHow to use our weather pages